GW2924 Weather Reports


Display with metric or nautical units.
time (UTC)temp
F
wind
direction
speed
MPH
gust
MPH
rain 1hr
in
rain 24hr
in
rain mn
in
humidity
%
barometer
mb
20260903184056 83 141 4.0 11.0 0.00 0.08 0.08 64 1011.0
20260903183556 83 130 3.0 15.0 0.00 0.08 0.08 65 1011.3
20260903183106 83 170 4.0 15.0 0.00 0.08 0.08 64 1011.3
20260903182557 83 149 6.0 11.0 0.00 0.08 0.08 63 1011.4
20260903182053 84 160 4.0 11.0 0.00 0.08 0.08 63 1011.5
20260903181601 84 144 5.0 11.0 0.00 0.08 0.08 62 1011.5
20260903181055 84 179 5.0 10.0 0.00 0.08 0.08 63 1011.5
20260903180555 85 134 4.0 10.0 0.00 0.08 0.08 61 1011.6
20260903180119 85 148 3.0 13.0 0.00 0.08 0.08 65 1011.7
20260903175552 84 233 3.0 13.0 0.00 0.08 0.08 66 1011.7
20260903175056 84 142 5.0 13.0 0.00 0.08 0.08 63 1011.5
20260903174558 84 176 5.0 8.0 0.00 0.08 0.08 65 1011.4
20260903174057 84 205 2.0 8.0 0.00 0.08 0.08 68 1011.4
20260903173559 83 180 2.0 8.0 0.01 0.08 0.08 69 1011.2
20260903173107 82 197 2.0 11.0 0.02 0.08 0.08 69 1011.4
20260903172556 82 213 3.0 11.0 0.02 0.08 0.08 69 1011.5
20260903172055 82 135 4.0 11.0 0.02 0.08 0.08 68 1011.5
20260903171604 82 134 3.0 9.0 0.02 0.08 0.08 70 1011.5
20260903171055 82 131 3.0 9.0 0.02 0.08 0.08 71 1011.4
20260903170555 82 231 4.0 8.0 0.02 0.08 0.08 70 1011.4
20260903165556 82 152 0.0 2.0 0.02 0.08 0.08 76 1011.5
20260903165057 81 0 0.0 0.0 0.02 0.08 0.08 78 1011.6
20260903164609 80 0 0.0 3.0 0.02 0.08 0.08 78 1011.7
20260903164055 80 0 0.0 3.0 0.02 0.08 0.08 75 1011.8
20260903163555 81 0 1.0 3.0 0.01 0.07 0.07 73 1011.7
20260903163106 82 241 1.0 4.0 0.00 0.06 0.06 72 1011.5
20260903162556 82 0 0.0 5.0 0.00 0.06 0.06 68 1011.7
20260903162056 82 143 0.0 5.0 0.00 0.06 0.06 70 1011.6
20260903161605 82 127 2.0 5.0 0.00 0.06 0.06 69 1011.5
20260903161055 82 216 1.0 4.0 0.00 0.06 0.06 72 1011.5
20260903160555 81 146 2.0 4.0 0.00 0.06 0.06 75 1011.5
20260903160109 80 0 1.0 5.0 0.00 0.06 0.06 75 1011.6
20260903155555 79 156 2.0 6.0 0.00 0.06 0.06 78 1011.6
20260903155056 78 141 1.0 6.0 0.00 0.06 0.06 80 1011.6
20260903154606 77 144 2.0 7.0 0.00 0.06 0.06 80 1011.6
20260903154056 76 213 2.0 7.0 0.00 0.06 0.06 80 1011.7
20260903153556 76 257 4.0 7.0 0.00 0.06 0.06 79 1011.6
20260903153112 76 209 2.0 7.0 0.00 0.06 0.06 81 1011.7
20260903152556 76 193 1.0 5.0 0.00 0.06 0.06 82 1011.8
20260903152055 75 148 1.0 5.0 0.00 0.06 0.06 82 1011.7
20260903151605 75 248 1.0 7.0 0.00 0.06 0.06 82 1011.6
20260903151057 75 67 1.0 7.0 0.00 0.06 0.06 82 1011.7
20260903150555 75 148 1.0 7.0 0.00 0.06 0.06 82 1011.6
20260903150111 75 126 3.0 6.0 0.00 0.06 0.06 84 1011.5
20260903145555 74 138 2.0 7.0 0.00 0.06 0.06 84 1011.3
20260903145053 74 174 3.0 7.0 0.00 0.06 0.06 85 1011.4
20260903144557 73 135 4.0 9.0 0.00 0.06 0.06 86 1011.6
20260903144056 72 147 5.0 9.0 0.00 0.06 0.06 87 1011.6
20260903143555 71 174 3.0 8.0 0.00 0.06 0.06 89 1011.5
20260903143106 71 184 4.0 7.0 0.00 0.06 0.06 88 1011.6
20260903142556 71 167 2.0 6.0 0.00 0.06 0.06 88 1011.7
20260903142056 71 250 1.0 6.0 0.00 0.06 0.06 88 1011.8
20260903141603 71 141 1.0 6.0 0.00 0.06 0.06 87 1011.8
20260903141057 72 190 1.0 6.0 0.00 0.06 0.06 87 1011.7
20260903140555 72 208 2.0 7.0 0.00 0.06 0.06 87 1011.6
20260903140105 72 145 3.0 9.0 0.00 0.06 0.06 86 1011.4
20260903135555 72 193 3.0 9.0 0.00 0.06 0.06 86 1011.3
20260903135055 72 159 3.0 8.0 0.00 0.06 0.06 86 1011.2
20260903134556 72 143 5.0 8.0 0.00 0.06 0.06 86 1011.1
20260903134054 72 211 4.0 9.0 0.00 0.06 0.06 86 1011.5
20260903133556 72 132 4.0 9.0 0.00 0.06 0.06 87 1011.4
20260903133106 71 172 4.0 7.0 0.01 0.06 0.06 87 1011.5
20260903132555 71 149 4.0 9.0 0.03 0.06 0.06 88 1011.6
20260903132055 70 160 4.0 9.0 0.03 0.06 0.06 89 1011.7
20260903131604 70 205 4.0 6.0 0.03 0.06 0.06 89 1011.7
20260903131055 70 169 3.0 6.0 0.03 0.06 0.06 89 1011.9
20260903130559 70 198 2.0 6.0 0.03 0.06 0.06 89 1012.1
20260903130131 70 143 0.0 4.0 0.03 0.06 0.06 89 1012.2
20260903125555 70 0 2.0 5.0 0.03 0.06 0.06 88 1012.5
20260903125052 70 122 2.0 5.0 0.03 0.06 0.06 88 1012.0
20260903124609 70 136 1.0 6.0 0.03 0.06 0.06 88 1012.0
20260903124055 70 199 1.0 7.0 0.03 0.06 0.06 87 1012.4
20260903123555 70 257 3.0 7.0 0.03 0.06 0.06 87 1012.5
20260903123109 70 195 2.0 6.0 0.02 0.05 0.05 87 1012.4
20260903122555 70 106 1.0 7.0 0.00 0.03 0.03 87 1012.4
20260903122054 70 129 2.0 8.0 0.00 0.03 0.03 87 1012.7
20260903121601 71 300 2.0 8.0 0.00 0.03 0.03 87 1012.6
20260903121055 71 243 2.0 8.0 0.00 0.03 0.03 86 1012.4
20260903120556 71 240 2.0 8.0 0.00 0.03 0.03 86 1012.0
20260903120106 71 49 3.0 9.0 0.00 0.03 0.03 86 1012.3
20260903115556 71 112 3.0 9.0 0.00 0.03 0.03 86 1012.5
20260903115054 71 343 3.0 9.0 0.00 0.03 0.03 86 1012.4
20260903114604 71 72 3.0 9.0 0.00 0.03 0.03 86 1012.4
20260903114056 71 248 3.0 8.0 0.00 0.03 0.03 86 1012.4
20260903113556 71 37 2.0 9.0 0.00 0.03 0.03 85 1012.5
20260903113106 71 176 4.0 9.0 0.00 0.03 0.03 85 1012.6
20260903112554 71 177 3.0 8.0 0.00 0.03 0.03 86 1012.5
20260903112054 71 274 1.0 7.0 0.00 0.03 0.03 86 1012.3
20260903111621 71 262 2.0 11.0 0.00 0.03 0.03 87 1012.2
20260903111053 71 284 3.0 11.0 0.00 0.03 0.03 87 1012.0
20260903110555 71 236 3.0 9.0 0.00 0.03 0.03 87 1012.0
20260903110126 71 206 2.0 11.0 0.00 0.03 0.03 87 1011.8
20260903105555 71 82 3.0 11.0 0.00 0.03 0.03 87 1011.9
20260903105056 71 101 4.0 12.0 0.00 0.03 0.03 87 1012.1
20260903104605 71 200 5.0 13.0 0.01 0.03 0.03 87 1012.3
20260903104055 72 160 5.0 13.0 0.02 0.03 0.03 87 1012.3
20260903103555 71 141 6.0 13.0 0.03 0.03 0.03 87 1012.3
20260903103107 72 172 4.0 10.0 0.03 0.03 0.03 88 1012.3
20260903102555 72 236 4.0 10.0 0.03 0.03 0.03 87 1012.3
20260903102058 71 238 4.0 7.0 0.03 0.03 0.03 88 1012.3
20260903101608 71 262 3.0 7.0 0.03 0.03 0.03 89 1012.3
20260903101057 72 268 4.0 11.0 0.03 0.03 0.03 89 1012.4
20260903100555 72 124 5.0 16.0 0.03 0.03 0.03 89 1012.5
20260903100057 72 267 7.0 16.0 0.03 0.03 0.03 89 1011.9
20260903095554 72 8 9.0 17.0 0.03 0.03 0.03 90 1012.2
20260903095056 71 231 8.0 17.0 0.02 0.02 0.02 91 1012.3
20260903094607 71 304 9.0 17.0 0.02 0.02 0.02 93 1012.4
20260903094055 71 185 3.0 7.0 0.01 0.01 0.01 93 1012.1
20260903093556 71 86 1.0 2.0 0.00 0.00 0.00 94 1012.0
20260903093105 71 0 0.0 1.0 0.00 0.00 0.00 94 1011.8
20260903092555 71 0 0.0 1.0 0.00 0.00 0.00 94 1011.9
20260903092057 70 0 0.0 1.0 0.00 0.00 0.00 94 1011.9
20260903091559 70 0 0.0 3.0 0.00 0.00 0.00 94 1011.6
20260903091058 70 141 0.0 4.0 0.00 0.00 0.00 94 1011.3
20260903090555 70 146 2.0 4.0 0.00 0.00 0.00 95 1011.0
20260903085556 70 167 0.0 0.0 0.00 0.00 0.00 94 1011.3
20260903085054 70 0 0.0 0.0 0.00 0.00 0.00 94 1011.3
20260903084604 70 0 0.0 1.0 0.00 0.00 0.00 94 1011.4
20260903084054 70 0 0.0 1.0 0.00 0.00 0.00 94 1011.4
20260903083558 70 0 0.0 2.0 0.00 0.00 0.00 95 1011.4
20260903083105 70 153 0.0 3.0 0.00 0.00 0.00 95 1011.5
20260903082555 69 187 1.0 3.0 0.00 0.00 0.00 95 1011.4
20260903082055 69 122 0.0 3.0 0.00 0.00 0.00 95 1011.3
20260903081619 69 139 1.0 3.0 0.00 0.00 0.00 95 1011.3
20260903081051 69 129 0.0 1.0 0.00 0.00 0.00 94 1011.2
20260903080558 69 130 0.0 1.0 0.00 0.00 0.00 94 1011.2
20260903080106 69 0 0.0 1.0 0.00 0.00 0.00 94 1011.2
20260903075551 69 0 0.0 1.0 0.00 0.07 0.00 94 1011.3
20260903075055 69 134 0.0 1.0 0.00 0.07 0.00 94 1011.3
20260903074610 69 0 0.0 0.0 0.00 0.07 0.00 94 1011.3
20260903074055 69 0 0.0 0.0 0.00 0.07 0.00 94 1011.4
20260903073553 69 0 0.0 0.0 0.00 0.07 0.00 94 1011.4
20260903073100 69 0 0.0 0.0 0.00 0.07 0.00 94 1011.3
20260903072555 69 0 0.0 0.0 0.00 0.07 0.00 94 1011.5
20260903072056 69 0 0.0 0.0 0.00 0.07 0.00 94 1011.4
20260903071605 69 0 0.0 0.0 0.00 0.07 0.00 93 1011.5
20260903071057 69 0 0.0 1.0 0.00 0.07 0.00 94 1011.5
20260903070556 69 0 0.0 1.0 0.00 0.07 0.00 93 1011.5
20260903070105 69 0 0.0 1.0 0.00 0.07 0.00 94 1011.5
20260903065556 69 0 0.0 1.0 0.00 1.04 0.00 93 1011.5
20260903065053 69 80 0.0 1.0 0.00 1.04 0.00 93 1011.6
20260903064603 70 0 0.0 1.0 0.00 1.04 0.00 93 1011.6
20260903064057 70 0 0.0 1.0 0.00 1.04 0.00 93 1011.7
20260903063557 70 144 0.0 1.0 0.00 1.04 0.00 93 1011.6
20260903063106 70 0 0.0 1.0 0.00 1.04 0.00 93 1011.6
20260903062556 70 0 0.0 1.0 0.00 1.04 0.00 93 1011.7
20260903062057 70 0 0.0 1.0 0.00 1.04 0.00 93 1011.7
20260903061604 70 113 0.0 1.0 0.00 1.04 0.00 93 1011.7
20260903061057 70 113 0.0 1.0 0.00 1.04 0.00 93 1011.7
20260903060557 70 0 0.0 1.0 0.00 1.04 0.00 93 1011.7
20260903060101 70 0 0.0 0.0 0.00 1.04 0.00 93 1011.7
20260903055557 70 0 0.0 0.0 0.00 1.15 0.00 93 1011.7
20260903055057 70 0 0.0 0.0 0.00 1.15 0.00 92 1011.7
20260903054603 70 0 0.0 0.0 0.00 1.15 0.00 92 1011.7
20260903054058 70 0 0.0 0.0 0.00 1.15 0.00 92 1011.7
20260903053557 70 0 0.0 0.0 0.00 1.15 0.00 91 1011.8
20260903053114 70 0 0.0 0.0 0.00 1.15 0.00 91 1011.7
20260903052557 70 0 0.0 0.0 0.00 1.15 0.00 90 1011.8
20260903052057 71 0 0.0 0.0 0.00 1.15 0.00 90 1011.8
20260903051601 71 0 0.0 0.0 0.00 1.15 0.00 89 1011.9
20260903051100 72 0 0.0 0.0 0.00 1.15 0.00 88 1011.9
20260903050557 72 0 0.0 2.0 0.00 1.15 0.00 87 1012.0
20260903050107 73 151 0.0 3.0 0.00 1.15 0.00 86 1011.9
20260903045557 74 148 1.0 3.0 0.00 1.15 1.15 87 1011.9
20260903045056 74 160 2.0 3.0 0.00 1.15 1.15 87 1011.9
20260903044607 74 166 1.0 3.0 0.00 1.15 1.15 86 1011.9
20260903044056 74 132 1.0 3.0 0.00 1.15 1.15 86 1012.0
20260903043557 74 165 1.0 2.0 0.00 1.15 1.15 86 1011.9
20260903043103 74 134 1.0 3.0 0.00 1.15 1.15 86 1011.9
20260903042556 74 172 1.0 3.0 0.00 1.15 1.15 87 1011.9
20260903042053 73 153 2.0 3.0 0.00 1.15 1.15 87 1011.9
20260903041604 73 163 1.0 2.0 0.00 1.15 1.15 87 1011.9
20260903041056 73 150 0.0 2.0 0.00 1.15 1.15 87 1012.0
20260903040556 73 142 1.0 2.0 0.00 1.15 1.15 87 1012.0
20260903040105 73 159 1.0 2.0 0.00 1.15 1.15 87 1012.0
20260903035556 73 150 1.0 2.0 0.00 1.15 1.15 87 1012.1
20260903035056 73 142 1.0 2.0 0.00 1.15 1.15 87 1012.1
20260903034603 73 144 1.0 2.0 0.00 1.15 1.15 87 1012.1
20260903034053 73 172 1.0 2.0 0.00 1.15 1.15 87 1012.3
20260903033557 73 159 0.0 2.0 0.00 1.15 1.15 88 1012.2
20260903033113 73 168 0.0 2.0 0.00 1.15 1.15 88 1012.4
20260903032553 73 132 0.0 2.0 0.00 1.15 1.15 89 1012.3
20260903032053 72 153 1.0 2.0 0.00 1.15 1.15 90 1012.3
20260903031605 72 0 0.0 0.0 0.00 1.15 1.15 91 1012.2
20260903031055 71 0 0.0 1.0 0.00 1.15 1.15 91 1012.3
20260903030557 71 0 0.0 1.0 0.00 1.15 1.15 91 1012.3
20260903030107 71 0 0.0 0.0 0.00 1.15 1.15 91 1012.2
20260903025556 71 0 0.0 0.0 0.00 1.15 1.15 91 1012.3
20260903025056 71 0 0.0 0.0 0.00 1.15 1.15 90 1012.3
20260903024606 71 0 0.0 0.0 0.00 1.15 1.15 90 1012.3
20260903024057 71 0 0.0 0.0 0.00 1.15 1.15 89 1012.3
20260903023557 72 0 0.0 0.0 0.00 1.15 1.15 89 1012.4
20260903023102 72 0 0.0 0.0 0.00 1.15 1.15 88 1012.3
20260903022556 73 0 0.0 0.0 0.00 1.15 1.15 87 1012.3
20260903022100 73 0 0.0 0.0 0.00 1.15 1.15 87 1012.4
20260903021611 73 188 0.0 0.0 0.00 1.15 1.15 86 1012.3
20260903021057 74 0 0.0 0.0 0.00 1.15 1.15 86 1012.3
20260903020600 74 0 0.0 0.0 0.00 1.15 1.15 85 1012.1
20260903015556 75 0 0.0 0.0 0.00 1.15 1.15 84 1012.2
20260903015056 75 0 0.0 0.0 0.00 1.15 1.15 84 1012.2
20260903014601 75 0 0.0 0.0 0.00 1.15 1.15 84 1012.0
20260903014056 75 0 0.0 0.0 0.00 1.15 1.15 84 1011.9
20260903013556 76 0 0.0 0.0 0.00 1.15 1.15 84 1011.8
20260903013105 76 0 0.0 0.0 0.00 1.15 1.15 84 1011.8
20260903012555 76 0 0.0 1.0 0.00 1.15 1.15 83 1011.7
20260903012056 77 0 0.0 1.0 0.00 1.15 1.15 82 1011.7
20260903011624 77 0 0.0 0.0 0.00 1.15 1.15 82 1011.7
20260903011057 77 0 0.0 0.0 0.00 1.15 1.15 81 1011.7
20260903010552 77 0 0.0 0.0 0.00 1.15 1.15 81 1011.7
20260903010113 78 0 0.0 0.0 0.00 1.15 1.15 81 1011.6
20260903005556 78 0 0.0 0.0 0.00 1.15 1.15 80 1011.7
20260903005056 79 0 0.0 0.0 0.00 1.15 1.15 79 1011.7
20260903004605 79 0 0.0 1.0 0.00 1.15 1.15 78 1011.7
20260903004057 80 0 0.0 1.0 0.00 1.15 1.15 77 1011.6
20260903003557 80 0 0.0 0.0 0.00 1.15 1.15 77 1011.6
20260903003115 80 0 0.0 0.0 0.00 1.15 1.15 77 1011.6
20260903002557 81 0 0.0 1.0 0.00 1.15 1.15 76 1011.6
20260903002057 81 0 0.0 1.0 0.00 1.15 1.15 75 1011.5
20260903001608 81 0 0.0 1.0 0.00 1.15 1.15 74 1011.5
20260903001056 82 0 0.0 1.0 0.00 1.15 1.15 75 1011.5
20260903000552 82 0 0.0 1.0 0.00 1.15 1.15 74 1011.5
20260903000107 83 0 0.0 1.0 0.00 1.15 1.15 74 1011.6
20260902235556 83 0 0.0 1.0 0.00 1.15 1.15 73 1011.7
20260902235100 84 245 0.0 2.0 0.00 1.15 1.15 71 1011.7
20260902234602 84 0 0.0 2.0 0.00 1.15 1.15 71 1011.6
20260902234056 85 0 0.0 2.0 0.00 1.15 1.15 70 1011.6
20260902233557 86 0 0.0 2.0 0.00 1.15 1.15 69 1011.7
20260902233109 86 0 0.0 2.0 0.00 1.15 1.15 69 1011.7
20260902232553 86 248 0.0 1.0 0.00 1.15 1.15 68 1011.6
20260902232056 87 255 0.0 2.0 0.00 1.15 1.15 66 1011.6
20260902231607 88 234 0.0 3.0 0.00 1.15 1.15 64 1011.6
20260902231056 89 263 1.0 3.0 0.00 1.15 1.15 62 1011.6
20260902230552 90 276 2.0 3.0 0.00 1.15 1.15 62 1011.6
20260902230110 91 0 0.0 1.0 0.00 1.15 1.15 59 1011.6
20260902225556 92 0 0.0 1.0 0.00 1.15 1.15 59 1011.6
20260902225052 91 0 0.0 1.0 0.00 1.15 1.15 61 1011.6
20260902224602 91 134 0.0 0.0 0.00 1.15 1.15 62 1011.6
20260902224053 90 0 0.0 0.0 0.00 1.15 1.15 65 1011.6
20260902223557 89 0 0.0 1.0 0.00 1.15 1.15 64 1011.6
20260902223131 89 0 0.0 1.0 0.00 1.15 1.15 63 1011.6
20260902222559 90 0 0.0 1.0 0.00 1.15 1.15 63 1011.5
20260902222056 90 0 0.0 1.0 0.00 1.15 1.15 63 1011.6
20260902221620 90 72 0.0 1.0 0.00 1.15 1.15 64 1011.6
20260902221055 90 72 0.0 1.0 0.00 1.15 1.15 63 1011.6
20260902220555 89 142 0.0 1.0 0.00 1.15 1.15 64 1011.6
20260902220109 88 0 0.0 1.0 0.00 1.15 1.15 65 1011.6
20260902215553 89 316 0.0 1.0 0.00 1.15 1.15 62 1011.6
20260902215056 89 0 0.0 2.0 0.00 1.15 1.15 63 1011.6
20260902214601 89 0 0.0 2.0 0.00 1.15 1.15 63 1011.7
20260902214056 89 0 1.0 2.0 0.00 1.15 1.15 61 1011.7
20260902213555 90 0 0.0 2.0 0.00 1.15 1.15 63 1011.7
20260902213109 90 0 0.0 4.0 0.00 1.15 1.15 64 1011.8
20260902212556 89 0 0.0 4.0 0.00 1.15 1.15 62 1011.8
20260902212055 89 191 0.0 3.0 0.00 1.15 1.15 63 1011.8
20260902211614 89 169 1.0 3.0 0.00 1.15 1.15 62 1011.8
20260902211056 89 205 1.0 4.0 0.00 1.15 1.15 63 1011.9
20260902210555 88 0 0.0 4.0 0.00 1.15 1.15 63 1012.0
20260902210103 88 321 1.0 3.0 0.00 1.15 1.15 61 1012.0
20260902205555 88 204 0.0 4.0 0.00 1.15 1.15 63 1012.0
20260902205058 88 254 1.0 4.0 0.00 1.15 1.15 63 1012.0
20260902204603 88 204 1.0 4.0 0.00 1.15 1.15 64 1012.0
20260902204055 88 152 1.0 4.0 0.00 1.15 1.15 63 1012.1
20260902203555 88 198 0.0 4.0 0.00 1.15 1.15 63 1012.1
20260902203058 88 261 1.0 4.0 0.00 1.15 1.15 64 1012.3
20260902202556 87 0 2.0 4.0 0.00 1.15 1.15 64 1012.3
20260902202056 87 0 1.0 5.0 0.00 1.15 1.15 63 1012.3
20260902201634 87 246 1.0 5.0 0.00 1.15 1.15 64 1012.3
20260902201052 88 264 3.0 5.0 0.00 1.15 1.15 63 1012.2
20260902200555 88 198 0.0 3.0 0.00 1.15 1.15 64 1012.3
20260902200120 87 197 1.0 4.0 0.00 1.15 1.15 64 1012.4
20260902195556 87 169 1.0 4.0 0.00 1.15 1.15 65 1012.4
20260902195052 87 116 1.0 3.0 0.00 1.15 1.15 65 1012.3
20260902194602 86 0 0.0 5.0 0.00 1.15 1.15 64 1012.3
20260902194052 85 0 1.0 5.0 0.00 1.15 1.15 70 1012.4
20260902193559 85 32 2.0 5.0 0.00 1.15 1.15 64 1012.4
20260902193058 86 296 0.0 2.0 0.00 1.15 1.15 64 1012.3
20260902192555 86 292 1.0 2.0 0.00 1.15 1.15 66 1012.3
20260902192055 86 105 0.0 5.0 0.00 1.15 1.15 65 1012.4
20260902191606 85 0 0.0 5.0 0.00 1.15 1.15 65 1012.4
20260902191055 85 264 2.0 5.0 0.00 1.15 1.15 64 1012.5
20260902190555 85 176 0.0 3.0 0.00 1.15 1.15 65 1012.5
20260902190107 85 357 1.0 4.0 0.00 1.15 1.15 65 1012.6
20260902185557 86 0 1.0 5.0 0.00 1.15 1.15 66 1012.7
20260902185055 86 240 1.0 6.0 0.00 1.15 1.15 64 1012.8
20260902184601 86 163 1.0 6.0 0.00 1.15 1.15 67 1012.9